Total_Precipitation_Accumulation
1.60 1.49 1.45 1.63 1.72 2.03 2.29 2.44 2.32 2.11 1.82 1.58 1.55 1.52 1.60 1.63 1.70 1.80 2.24 2.76 3.32 4.18 4.64 4.60 4.48 4.36 4.32 4.27 4.14 4.02 3.79 3.51 3.54 3.80 4.36 4.55 4.20 3.67 3.31 3.05 2.81 2.55 2.59
1.40 1.43 1.34 1.43 1.61 1.96 2.40 2.53 2.27 2.13 1.91 1.79 1.77 1.69 1.67 1.64 1.67 1.64 1.87 2.17 2.30 2.77 3.50 4.17 4.55 4.60 4.65 4.58 4.12 3.94 3.71 3.42 3.38 3.54 3.55 3.59 3.58 3.26 2.98 2.95 2.73 2.52 2.69
1.19 1.30 1.37 1.40 1.53 1.88 2.35 2.64 2.50 2.28 2.00 1.94 1.90 1.83 1.73 1.74 1.69 1.61 1.73 1.95 1.92 2.06 2.59 3.37 4.18 4.57 4.55 4.50 4.14 3.91 3.54 3.13 2.99 3.09 3.15 3.04 3.15 3.15 2.99 2.93 2.75 2.59 2.60
1.22 1.32 1.44 1.41 1.47 1.79 2.21 2.58 2.71 2.70 2.48 2.31 2.15 2.00 1.88 2.03 1.87 1.73 1.78 1.94 2.08 1.94 2.05 2.53 3.23 4.06 4.41 4.48 4.00 3.69 3.50 3.10 2.83 2.75 2.84 2.69 2.87 3.09 3.09 2.95 2.88 2.89 2.84
1.31 1.40 1.61 1.65 1.66 1.90 2.11 2.24 2.46 2.65 2.72 2.53 2.19 2.10 1.98 2.10 2.21 2.11 2.17 2.23 2.25 2.17 2.04 2.07 2.41 2.90 3.68 4.14 3.96 3.66 3.52 3.23 2.99 2.74 2.78 2.61 2.58 2.85 3.04 2.87 2.92 3.05 3.05
1.53 1.48 1.65 1.70 1.77 2.06 2.18 2.31 2.60 2.70 2.78 2.79 2.38 2.17 2.08 2.08 2.14 2.35 2.47 2.47 2.45 2.25 2.19 2.07 2.26 2.37 3.00 3.65 3.75 3.60 3.34 3.27 3.26 3.10 3.11 2.94 2.67 2.74 2.90 2.82 2.89 2.97 3.06
1.62 1.66 1.72 1.77 1.82 1.97 2.05 2.20 2.66 2.81 2.82 2.73 2.81 2.73 2.54 2.26 2.16 2.24 2.37 2.58 2.68 2.49 2.40 2.41 2.34 2.31 2.45 2.84 3.08 3.19 3.14 3.39 3.57 3.44 3.27 3.10 2.85 2.90 3.01 2.87 2.92 2.92 2.94
1.58 1.52 1.76 1.92 1.89 2.05 2.11 2.29 2.66 2.99 2.85 2.74 3.14 3.56 3.29 2.95 2.54 2.24 2.27 2.32 2.55 2.58 2.43 2.30 2.17 2.18 2.26 2.40 2.40 2.58 2.83 3.31 3.79 3.63 3.27 3.16 2.99 2.87 2.99 2.93 2.89 2.82 2.80
1.87 1.80 1.91 2.08 2.05 2.12 2.23 2.28 2.43 2.99 3.25 3.07 3.02 3.61 3.50 3.27 3.19 2.60 2.16 2.05 2.31 2.51 2.52 2.36 2.22 2.23 2.26 2.39 2.33 2.29 2.46 2.83 3.49 3.57 3.37 3.36 3.21 2.95 2.76 2.68 2.67 2.80 2.87
2.16 2.01 2.04 2.14 2.18 2.25 2.23 2.06 2.24 2.79 3.38 3.51 3.28 3.01 2.85 2.77 2.93 2.90 2.34 1.97 2.01 2.21 2.44 2.33 2.29 2.35 2.39 2.49 2.54 2.35 2.24 2.34 2.87 3.49 3.74 3.61 3.44 3.20 2.90 2.71 2.64 2.70 2.73
2.20 2.05 2.00 2.17 2.26 2.30 2.27 2.31 2.46 2.76 3.12 3.48 3.49 3.25 2.95 2.66 2.21 2.39 2.49 2.26 1.95 1.86 1.94 2.08 2.25 2.34 2.39 2.37 2.51 2.41 2.15 1.99 2.27 2.93 3.53 3.69 3.56 3.43 3.27 3.16 3.13 3.09 2.96
2.05 2.02 2.03 2.06 2.07 2.15 2.22 2.36 2.59 2.73 2.93 3.17 3.27 2.97 2.85 2.77 2.51 2.32 2.16 2.26 2.23 1.93 1.74 1.71 1.84 2.06 2.17 2.25 2.13 2.21 2.04 1.96 2.00 2.16 2.51 3.00 3.24 3.39 3.48 3.50 3.38 3.24 3.22
1.83 1.86 1.95 1.94 1.86 1.89 2.02 2.17 2.36 2.38 2.51 2.73 2.86 2.74 2.56 2.39 2.34 2.39 2.33 2.22 2.09 1.82 1.66 1.48 1.57 1.74 1.77 1.98 2.16 2.13 1.86 1.85 1.79 1.77 1.80 1.99 2.36 2.74 3.13 3.52 3.59 3.48 3.44
1.62 1.57 1.60 1.67 1.70 1.72 1.79 1.95 2.07 2.03 2.09 2.27 2.33 2.40 2.32 2.21 2.20 2.21 2.25 2.39 2.27 2.05 1.68 1.34 1.38 1.56 1.54 1.65 1.99 2.05 1.65 1.59 1.45 1.41 1.47 1.58 1.76 2.07 2.48 2.85 3.12 3.26 3.30
1.41 1.33 1.37 1.48 1.58 1.60 1.63 1.80 1.90 1.84 1.89 1.99 2.11 2.27 2.21 2.13 2.11 2.13 2.22 2.33 2.41 2.31 2.01 1.53 1.36 1.33 1.36 1.46 1.83 1.71 1.57 1.58 1.44 1.34 1.26 1.31 1.43 1.57 1.77 2.05 2.27 2.43 2.48
1.36 1.33 1.33 1.33 1.36 1.39 1.45 1.66 1.84 1.89 1.88 1.90 1.93 2.04 2.17 2.14 2.15 2.14 2.22 2.27 2.28 2.31 2.18 1.74 1.46 1.32 1.41 1.35 1.61 1.38 1.48 1.70 1.50 1.30 1.21 1.18 1.24 1.35 1.48 1.66 1.70 1.66 1.63
1.19 1.14 1.10 1.14 1.25 1.23 1.24 1.43 1.54 1.58 1.73 1.80 1.74 1.76 1.91 2.01 2.13 2.14 2.16 2.18 2.24 2.23 2.13 1.87 1.53 1.38 1.51 1.55 1.60 1.41 1.36 1.40 1.34 1.32 1.23 1.14 1.11 1.19 1.24 1.37 1.48 1.35 1.25
1.06 1.09 1.09 1.02 1.15 1.27 1.28 1.32 1.33 1.34 1.50 1.62 1.63 1.68 1.69 1.69 1.80 1.93 2.05 2.02 2.10 2.15 2.15 2.04 1.75 1.55 1.58 1.68 1.86 1.80 1.66 1.53 1.47 1.58 1.54 1.37 1.25 1.24 1.28 1.33 1.42 1.33 1.13
0.97 1.05 1.18 1.14 1.10 1.16 1.23 1.23 1.22 1.24 1.28 1.35 1.40 1.48 1.50 1.58 1.70 1.70 1.77 1.85 1.92 1.99 2.14 2.11 1.99 1.88 1.77 1.72 1.82 1.80 1.83 1.92 1.82 1.79 1.83 1.65 1.49 1.39 1.35 1.36 1.40 1.38 1.24
0.98 0.99 0.98 1.07 1.10 1.13 1.18 1.17 1.14 1.13 1.13 1.14 1.27 1.36 1.43 1.49 1.57 1.60 1.61 1.74 1.87 1.97 2.02 2.01 1.95 1.88 1.84 1.84 1.85 1.84 1.92 2.03 2.10 1.92 1.87 1.75 1.73 1.64 1.52 1.45 1.41 1.41 1.38
0.78 0.83 0.83 0.84 0.91 1.01 1.03 1.00 1.01 1.06 1.11 1.13 1.24 1.29 1.33 1.36 1.40 1.46 1.44 1.60 1.75 1.93 2.01 2.03 1.91 1.81 1.74 1.77 1.77 1.77 1.88 2.11 2.15 2.13 2.06 1.88 1.74 1.58 1.52 1.52 1.50 1.51 1.50
0.65 0.68 0.68 0.75 0.78 0.81 0.99 1.01 0.95 0.98 1.05 1.08 1.14 1.19 1.31 1.38 1.34 1.30 1.27 1.33 1.45 1.54 1.72 1.85 1.89 1.78 1.66 1.65 1.77 1.89 1.91 2.07 2.21 2.08 1.96 2.01 1.90 1.77 1.61 1.50 1.61 1.63 1.56
0.70 0.68 0.69 0.74 0.68 0.68 0.84 0.85 0.96 1.08 1.06 1.01 0.98 1.12 1.22 1.28 1.35 1.34 1.24 1.22 1.20 1.23 1.33 1.51 1.62 1.59 1.55 1.57 1.70 1.83 1.94 2.03 1.95 1.98 1.96 2.04 1.97 1.83 1.60 1.57 1.68 1.55 1.52
0.73 0.78 0.78 0.80 0.72 0.66 0.75 0.77 0.91 0.96 0.96 0.92 0.95 1.04 1.16 1.26 1.32 1.36 1.29 1.33 1.27 1.14 1.12 1.18 1.34 1.43 1.44 1.60 1.78 1.96 2.11 2.13 2.00 1.93 1.91 1.98 1.84 1.68 1.51 1.49 1.65 1.53 1.43
0.70 0.75 0.86 0.87 0.77 0.69 0.74 0.77 0.88 0.95 1.00 0.95 0.94 1.00 1.16 1.21 1.40 1.49 1.35 1.38 1.35 1.15 1.09 1.16 1.20 1.29 1.42 1.58 1.78 2.00 2.12 2.15 2.13 2.00 1.78 1.69 1.59 1.62 1.58 1.48 1.48 1.50 1.38
0.77 0.77 0.78 0.75 0.69 0.67 0.73 0.74 0.82 0.83 0.95 1.01 1.04 1.04 1.27 1.33 1.43 1.43 1.33 1.45 1.52 1.35 1.11 1.06 1.13 1.27 1.37 1.53 1.80 1.96 2.21 2.25 2.07 1.99 1.76 1.62 1.61 1.72 1.86 1.65 1.44 1.34 1.27